{"data":{"norad_id":65919,"epoch":"2026-09-20T11:43:40.089216Z","epoch_age_seconds":104063,"freshness":"FRESH","line1":"1 65919U 25225K   26263.48865844  .00008002  00000+0  24769-3 0  9992","line2":"2 65919  53.1600 337.9529 0000932  70.6667 289.4437 15.34403393 54271","mean_motion":15.34403393,"eccentricity":9.32e-5,"inclination_deg":53.16,"raan_deg":337.9529,"arg_perigee_deg":70.6667,"mean_anomaly_deg":289.4437,"bstar":0.00024769,"rev_number":5427,"period_min":93.847550557391,"perigee_km":462.05559014415,"apogee_km":463.33072088514,"semimajor_km":6840.8301555146,"source":"CELESTRAK","updated_at":"2026-09-21T09:00:35.764053Z"}}